EW3861 Weather Reports


time (UTC)temp
C
wind
direction
speed
KPH
gust
KPH
rain 1hr
cm
rain 24hr
cm
rain mn
cm
humidity
%
barometer
mb
20260902153010 20 306 0.0 0.0 0.00 0.00 0.00 80 1021.0
20260902151505 20 235 0.0 0.0 0.00 0.00 0.00 83 1020.9
20260902150100 18 254 0.0 0.0 0.00 0.00 0.00 87 1020.9
20260902144555 18 254 0.0 0.0 0.00 0.00 0.00 91 1020.8
20260902143052 18 327 0.0 0.0 0.00 0.00 0.00 96 1020.6
20260902141550 17 327 0.0 0.0 0.00 0.00 0.00 97 1020.4
20260902140049 17 348 0.0 0.0 0.00 0.00 0.00 97 1020.3
20260902134554 17 335 0.0 0.0 0.00 0.00 0.00 98 1020.2
20260902133048 17 306 0.0 0.0 0.00 0.00 0.00 98 1019.9
20260902131557 17 241 0.0 0.0 0.00 0.00 0.00 98 1020.0
20260902130046 17 232 0.0 0.0 0.00 0.00 0.00 98 1020.1
20260902124545 17 229 0.0 0.0 0.00 0.00 0.00 98 1020.4
20260902123101 16 229 0.0 0.0 0.00 0.00 0.00 98 1020.3
20260902121550 16 229 0.0 0.0 0.00 0.00 0.00 98 1020.5
20260902120035 15 229 0.0 0.0 0.00 0.00 0.00 98 1020.6
20260902114533 15 229 0.0 0.0 0.00 0.00 0.00 98 1020.7
20260902113031 15 229 0.0 0.0 0.00 0.00 0.00 98 1020.6
20260902111537 14 229 0.0 0.0 0.00 0.00 0.00 97 1020.5
20260902110029 14 229 0.0 0.0 0.00 0.00 0.00 97 1020.4
20260902104527 14 229 0.0 0.0 0.00 0.00 0.00 97 1020.1
20260902103025 14 229 0.0 0.0 0.00 0.00 0.00 97 1019.9
20260902101523 14 229 0.0 0.0 0.00 0.00 0.00 97 1019.7
20260902100021 14 229 0.0 0.0 0.00 0.00 0.00 97 1019.4
20260902094520 14 229 0.0 0.0 0.00 0.00 0.00 97 1019.5
20260902093020 14 229 0.0 0.0 0.00 0.00 0.00 97 1019.3
20260902091518 14 229 0.0 0.0 0.00 0.00 0.00 97 1019.3
20260902090018 14 229 0.0 0.0 0.00 0.00 0.00 97 1019.2
20260902084516 15 229 0.0 0.0 0.00 0.00 0.00 97 1019.2
20260902083015 15 229 0.0 0.0 0.00 0.00 0.00 97 1019.2
20260902081516 15 229 0.0 0.0 0.00 0.00 0.00 97 1018.9
20260902080016 15 229 0.0 0.0 0.00 0.00 0.00 97 1019.0
20260902074514 15 229 0.0 0.0 0.00 0.00 0.00 97 1019.2
20260902073012 15 229 0.0 0.0 0.00 0.00 0.00 97 1019.2
20260902071517 15 229 0.0 0.0 0.00 0.00 0.00 97 1019.0
20260902070010 15 229 0.0 0.0 0.00 0.00 0.00 97 1019.0
20260902064510 15 229 0.0 0.0 0.00 0.00 0.00 97 1018.8
20260902063010 15 229 0.0 0.0 0.00 0.00 0.00 97 1018.9
20260902061509 15 229 0.0 0.0 0.00 0.00 0.00 97 1018.8
20260902060008 15 229 0.0 0.0 0.00 0.00 0.00 97 1019.0
20260902054511 15 229 0.0 0.0 0.00 0.00 0.00 97 1019.0
20260902053006 15 229 0.0 0.0 0.00 0.00 0.00 97 1018.9
20260902051506 15 229 0.0 0.0 0.00 0.00 0.00 97 1018.8
20260902050014 15 229 0.0 0.0 0.00 0.00 0.00 96 1018.9
20260902044503 15 229 0.0 0.0 0.00 0.00 0.00 96 1018.7
20260902043003 15 229 0.0 0.0 0.00 0.00 0.00 96 1018.6
20260902041559 15 229 0.0 0.0 0.00 0.00 0.00 96 1018.2
20260902040056 15 229 0.0 0.0 0.00 0.00 0.00 96 1017.9
20260902034555 15 229 0.0 0.0 0.00 0.00 0.00 96 1017.9
20260902033056 15 229 0.0 0.0 0.00 0.00 0.00 96 1018.0
20260902031606 15 229 0.0 0.0 0.00 0.00 0.00 96 1017.9
20260902030053 15 229 0.0 0.0 0.00 0.00 0.00 96 1017.8
20260902024558 15 229 0.0 0.0 0.00 0.00 0.00 96 1017.8
20260902023055 15 229 0.0 0.0 0.00 0.00 0.00 96 1017.9
20260902021601 15 229 0.0 0.0 0.00 0.00 0.00 96 1017.7
20260902020058 15 229 0.0 0.0 0.00 0.00 0.00 95 1017.8
20260902014550 15 229 0.0 0.0 0.00 0.00 0.00 95 1017.9
20260902013048 15 229 0.0 0.0 0.00 0.00 0.00 96 1017.7
20260902011547 15 229 0.0 0.0 0.00 0.00 0.00 95 1017.5
20260902010045 15 229 0.0 0.0 0.00 0.00 0.00 96 1017.8
20260902004544 16 229 0.0 0.0 0.00 0.00 0.00 96 1017.5
20260902003044 16 229 0.0 0.0 0.00 0.00 0.00 95 1017.4
20260902001545 16 229 0.0 0.0 0.00 0.00 0.00 95 1017.4
20260902000042 16 229 0.0 0.0 0.00 0.00 0.00 95 1017.5
20260901234540 16 229 0.0 0.0 0.00 0.00 0.00 95 1017.3
20260901233039 16 229 0.0 0.0 0.00 0.00 0.00 95 1017.3
20260901231539 16 229 0.0 0.0 0.00 0.00 0.00 95 1017.2
20260901230054 16 229 0.0 0.0 0.00 0.00 0.00 95 1017.1
20260901224538 16 229 0.0 0.0 0.00 0.00 0.00 95 1017.1
20260901223047 16 229 0.0 0.0 0.00 0.00 0.00 95 1017.1
20260901221537 16 229 0.0 0.0 0.00 0.00 0.00 95 1017.1
20260901220056 16 229 0.0 0.0 0.00 0.00 0.00 95 1017.3
20260901214536 16 229 0.0 0.0 0.00 0.00 0.00 95 1017.3
20260901213044 16 229 0.0 0.0 0.00 0.00 0.00 94 1017.1
20260901211534 16 229 0.0 0.0 0.00 0.00 0.00 94 1017.2
20260901210034 16 229 0.0 0.0 0.00 0.00 0.00 94 1017.0
20260901204536 16 228 0.0 0.0 0.00 0.00 0.00 94 1016.8
20260901203037 16 148 0.0 0.0 0.00 0.00 0.00 93 1016.8
20260901201530 16 148 0.0 0.0 0.00 0.00 0.00 93 1016.7
20260901200029 16 207 0.0 0.0 0.00 0.00 0.00 93 1016.7
20260901194527 16 163 0.0 0.0 0.00 0.00 0.00 93 1016.7
20260901193031 16 163 0.0 0.0 0.00 0.00 0.00 93 1016.7
20260901191525 17 199 0.0 0.0 0.00 0.00 0.00 93 1016.7
20260901190023 17 199 0.0 0.0 0.00 0.00 0.00 93 1016.4
20260901184538 17 220 0.0 0.0 0.00 0.00 0.00 92 1016.4
20260901183021 17 217 0.0 0.0 0.00 0.00 0.00 92 1016.5
20260901181531 17 231 0.0 0.0 0.00 0.00 0.00 90 1016.5
20260901180018 17 232 0.0 0.0 0.00 0.00 0.00 88 1016.3
20260901174540 18 230 0.0 0.0 0.00 0.00 0.00 85 1015.8
20260901173019 18 228 0.0 0.0 0.00 0.00 0.00 83 1016.3
20260901171518 19 231 0.0 0.0 0.00 0.00 0.00 81 1016.1
20260901170014 19 226 0.0 0.0 0.00 0.00 0.00 84 1016.0
20260901164514 20 248 0.0 0.0 0.00 0.00 0.00 85 1016.1
20260901163013 20 229 0.0 0.0 0.00 0.00 0.00 85 1015.9
20260901161513 20 234 0.0 0.0 0.00 0.00 0.00 86 1015.8
20260901160021 20 234 0.0 0.0 0.00 0.00 0.00 88 1015.9
20260901154510 20 276 0.0 0.0 0.00 0.00 0.00 90 1015.8